This demonstration page uses our WeatherBlox Daily Observations layout. Learn more.

Left ArrowRight Arrow

Hourly Observations for June 15, 2019

Temp ( °F °C ) Dew Point ( °F °C ) Humidity (%) Winds ( mph kmh ) Pressure ( in mb ) Visibility ( mi km ) Precip ( " mm )
12:56 am 00:56 Mostly Clear 70 21.1 64 17.8 82 82 NW 5 7 29.63 1004 10 16 0.00 0.00
1:56 am 01:56 Partly Cloudy 73 22.8 63 17.2 71 71 Calm 29.64 1004 10 16 0.00 0.00
2:56 am 02:56 Mostly Clear 71 21.7 63 17.2 76 76 N 7 11 29.62 1003 10 16 0.00 0.00
3:56 am 03:56 Clear 69 20.6 63 17.2 81 81 WSW 5 7 29.64 1004 10 16 0.00 0.00
4:56 am 04:56 Partly Cloudy 68 20 63 17.2 84 84 SW 8 13 29.65 1004 9 14 0.00 0.00
5:37 am 05:37 Mostly Cloudy with Nearby Thunderstorms 66 19 63 17 88 88 WSW 6 9 29.62 1003 10 16 0.00 0.00
5:52 am 05:52 Mostly Cloudy with Light Rain 68 20 63 17 83 83 W 10 17 29.64 1004 10 16 0.00 0.03
5:56 am 05:56 Cloudy with Light Rain 68 20 63 17.2 84 84 W 9 15 29.65 1004 10 16 0.00 0.03
6:03 am 06:03 Cloudy with Thunderstorms 68 20 63 17 83 83 WSW 9 15 29.63 1003 10 16 0.00 0.00
6:37 am 06:37 Mostly Cloudy with Nearby Thunderstorms 66 19 63 17 88 88 NW 15 24 29.66 1005 10 16 0.05 1.27
6:41 am 06:41 Mostly Cloudy with Nearby Thunderstorms 66 19 64 18 94 94 WNW 13 20 29.67 1005 10 16 0.06 1.52
6:56 am 06:56 Cloudy with Nearby Thunderstorms 67 19.4 62 16.7 84 84 N 21 33 29.67 1005 10 16 0.07 1.78
7:03 am 07:03 Cloudy with Light Rain 66 19 63 17 88 88 N 22 35 29.67 1005 10 16 0.00 0.03
7:14 am 07:14 Cloudy with Nearby Thunderstorms 66 19 63 17 88 88 N 17 28 29.68 1005 10 16 0.00 0.00
7:18 am 07:18 Cloudy with Nearby Thunderstorms 66 19 63 17 88 88 N 17 28 29.68 1005 10 16 0.00 0.03
7:29 am 07:29 Cloudy 66 19 63 17 88 88 N 17 28 29.69 1006 10 16 0.00 0.03
7:56 am 07:56 Cloudy 66 18.9 62 16.7 87 87 N 20 31 29.71 1006 10 16 0.00 0.03
8:56 am 08:56 Sunny 68 20 62 16.7 81 81 N 15 24 29.73 1007 10 16 0.00 0.00
9:56 am 09:56 Sunny 71 21.7 62 16.7 73 73 NNE 13 20 29.75 1008 10 16 0.00 0.00
10:56 am 10:56 Sunny 73 22.8 61 16.1 66 66 N 17 28 29.78 1009 10 16 0.00 0.00
11:56 am 11:56 Sunny 75 23.9 60 15.6 60 60 N 16 26 29.80 1009 10 16 0.00 0.00
12:56 pm 12:56 Mostly Sunny 77 25 60 15.6 56 56 N 13 20 29.81 1010 10 16 0.00 0.00
1:56 pm 13:56 Partly Cloudy 76 24.4 60 15.6 58 58 NNW 12 19 29.81 1010 10 16 0.00 0.00
2:56 pm 14:56 Sunny 79 26.1 61 16.1 54 54 N 13 20 29.81 1009 10 16 0.00 0.00
3:56 pm 15:56 Sunny 80 26.7 59 15 49 49 NNW 9 15 29.80 1009 10 16 0.00 0.00
4:56 pm 16:56 Sunny 82 27.8 59 15 46 46 NW 9 15 29.79 1009 10 16 0.00 0.00
5:56 pm 17:56 Sunny 82 27.8 57 13.9 42 42 NNW 14 22 29.78 1009 10 16 0.00 0.00
6:56 pm 18:56 Sunny 81 27.2 57 13.9 44 44 N 13 20 29.80 1009 10 16 0.00 0.00
7:56 pm 19:56 Sunny 79 26.1 57 13.9 47 47 N 10 17 29.80 1009 10 16 0.00 0.00
8:56 pm 20:56 Sunny 74 23.3 59 15 60 60 N 7 11 29.83 1010 10 16 0.00 0.00
9:56 pm 21:56 Clear 74 23.3 58 14.4 57 57 NNW 5 7 29.84 1010 10 16 0.00 0.00
10:56 pm 22:56 Clear 70 21.1 60 15.6 71 71 WNW 3 6 29.86 1011 10 16 0.00 0.00
11:56 pm 23:56 Clear 68 20 58 14.4 70 70 NNW 7 11 29.85 1011 10 16 0.00 0.00

Powered by AerisWeather